Time,TemperatureF,DewpointF,PressureIn,WindDirection,WindDirectionDegrees,WindSpeedMPH,WindSpeedGustMPH,Humidity,HourlyPrecipIn,Conditions,Clouds,dailyrainin,SoftwareType,DateUTC
2013-01-01 00:04:00,13.6,7.4,30.20,East,90,0.0,0.0,76,0.00,,,0.00,WUHU21623XXSP,2013-01-01 08:04:00,
2013-01-01 00:09:00,13.3,6.8,30.19,SE,135,0.0,0.0,75,0.00,,,0.00,WUHU21623XXSP,2013-01-01 08:09:00,
2013-01-01 00:17:00,12.9,6.4,30.18,ESE,112,0.0,0.0,75,0.00,,,0.00,WUHU21623XXSP,2013-01-01 08:17:00,
2013-01-01 00:26:00,12.7,6.3,30.19,West,270,0.0,0.0,75,0.00,,,0.00,WUHU21623XXSP,2013-01-01 08:26:00,
2013-01-01 00:39:00,12.0,5.8,30.18,NW,315,0.0,0.0,76,0.00,,,0.00,WUHU21623XXSP,2013-01-01 08:39:00,
2013-01-01 00:44:00,11.8,5.6,30.18,NNW,337,0.0,0.0,76,0.00,,,0.00,WUHU21623XXSP,2013-01-01 08:44:00,
2013-01-01 00:53:00,11.5,5.3,30.17,NNW,337,0.0,0.0,76,0.00,,,0.00,WUHU21623XXSP,2013-01-01 08:53:00,
2013-01-01 00:59:00,11.5,5.3,30.17,NNW,337,0.0,0.0,76,0.00,,,0.00,WUHU21623XXSP,2013-01-01 08:59:00,
2013-01-01 01:04:00,11.3,5.1,30.17,NNW,337,0.0,0.0,76,0.00,,,0.00,WUHU21623XXSP,2013-01-01 09:04:00,
2013-01-01 01:11:00,10.9,4.7,30.17,WNW,292,1.1,1.1,76,0.00,,,0.00,WUHU21623XXSP,2013-01-01 09:11:00,
2013-01-01 01:21:00,10.6,4.7,30.17,NW,315,0.0,0.0,77,0.00,,,0.00,WUHU21623XXSP,2013-01-01 09:21:00,
2013-01-01 01:26:00,10.6,4.7,30.17,WNW,292,0.0,0.0,77,0.00,,,0.00,WUHU21623XXSP,2013-01-01 09:26:00,
2013-01-01 01:38:00,10.6,4.7,30.17,WNW,292,0.0,0.0,77,0.00,,,0.00,WUHU21623XXSP,2013-01-01 09:38:00,
2013-01-01 01:47:00,10.2,4.3,30.17,West,270,0.0,0.0,77,0.00,,,0.00,WUHU21623XXSP,2013-01-01 09:47:00,
2013-01-01 02:00:00,10.0,4.2,30.18,WNW,292,2.9,2.9,77,0.00,,,0.00,WUHU21623XXSP,2013-01-01 10:00:00,
2013-01-01 02:05:00,10.0,4.2,30.18,WNW,292,2.9,2.9,77,0.00,,,0.00,WUHU21623XXSP,2013-01-01 10:05:00,
2013-01-01 02:26:00,11.3,6.3,30.18,NW,315,8.7,8.7,80,0.00,,,0.00,WUHU21623XXSP,2013-01-01 10:26:00,
2013-01-01 02:32:00,11.5,6.7,30.17,WNW,292,3.1,8.7,81,0.00,,,0.00,WUHU21623XXSP,2013-01-01 10:32:00,
2013-01-01 02:37:00,11.5,6.7,30.17,NW,315,7.6,7.6,81,0.00,,,0.00,WUHU21623XXSP,2013-01-01 10:37:00,
2013-01-01 02:42:00,11.7,6.9,30.17,NW,315,5.8,7.6,81,0.00,,,0.00,WUHU21623XXSP,2013-01-01 10:42:00,
2013-01-01 02:53:00,11.7,6.9,30.18,West,270,3.8,3.8,81,0.00,,,0.00,WUHU21623XXSP,2013-01-01 10:53:00,
2013-01-01 02:58:00,11.8,7.3,30.18,NNW,337,6.0,6.0,82,0.00,,,0.00,WUHU21623XXSP,2013-01-01 10:58:00,
2013-01-01 03:03:00,11.8,7.3,30.18,NW,315,7.6,7.6,82,0.00,,,0.00,WUHU21623XXSP,2013-01-01 11:03:00,
2013-01-01 03:09:00,12.0,7.5,30.18,WNW,292,5.8,7.6,82,0.00,,,0.00,WUHU21623XXSP,2013-01-01 11:09:00,
2013-01-01 03:14:00,12.0,7.5,30.18,NW,315,4.5,5.8,82,0.00,,,0.00,WUHU21623XXSP,2013-01-01 11:14:00,
2013-01-01 03:23:00,12.4,7.9,30.19,West,270,0.0,0.0,82,0.00,,,0.00,WUHU21623XXSP,2013-01-01 11:23:00,
2013-01-01 03:28:00,12.4,7.9,30.19,NNE,22,0.0,0.0,82,0.00,,,0.00,WUHU21623XXSP,2013-01-01 11:28:00,
2013-01-01 03:33:00,12.2,7.7,30.19,NNW,337,2.7,2.7,82,0.00,,,0.00,WUHU21623XXSP,2013-01-01 11:33:00,
2013-01-01 03:41:00,12.0,7.5,30.19,WNW,292,0.0,2.7,82,0.00,,,0.00,WUHU21623XXSP,2013-01-01 11:41:00,
2013-01-01 03:49:00,12.0,7.5,30.19,NW,315,6.3,6.3,82,0.00,,,0.00,WUHU21623XXSP,2013-01-01 11:49:00,
2013-01-01 03:54:00,12.0,7.5,30.20,WNW,292,5.1,6.3,82,0.00,,,0.00,WUHU21623XXSP,2013-01-01 11:54:00,
2013-01-01 03:59:00,12.4,8.1,30.20,NW,315,6.3,6.3,83,0.00,,,0.00,WUHU21623XXSP,2013-01-01 11:59:00,
2013-01-01 04:04:00,12.4,8.1,30.20,NW,315,6.3,6.3,83,0.00,,,0.00,WUHU21623XXSP,2013-01-01 12:04:00,
2013-01-01 04:15:00,13.1,9.1,30.21,North,0,10.3,10.3,84,0.00,,,0.00,WUHU21623XXSP,2013-01-01 12:15:00,
2013-01-01 04:23:00,13.6,9.3,30.21,WNW,292,2.7,10.3,84,0.00,,,0.00,WUHU21623XXSP,2013-01-01 12:23:00,
2013-01-01 04:32:00,13.6,9.7,30.22,NNE,22,0.0,2.7,84,0.00,,,0.00,WUHU21623XXSP,2013-01-01 12:32:00,
2013-01-01 04:51:00,13.8,9.9,30.24,East,90,0.0,0.0,84,0.00,,,0.00,WUHU21623XXSP,2013-01-01 12:51:00,
2013-01-01 04:56:00,13.8,9.9,30.24,SSE,157,0.0,0.0,84,0.00,,,0.00,WUHU21623XXSP,2013-01-01 12:56:00,
2013-01-01 05:01:00,13.8,9.6,30.24,SSE,157,0.0,0.0,83,0.00,,,0.00,WUHU21623XXSP,2013-01-01 13:01:00,
2013-01-01 05:06:00,13.8,9.6,30.25,East,90,0.0,3.1,83,0.00,,,0.00,WUHU21623XXSP,2013-01-01 13:06:00,
2013-01-01 05:15:00,13.8,9.6,30.25,SSW,202,3.8,3.8,83,0.00,,,0.00,WUHU21623XXSP,2013-01-01 13:15:00,
2013-01-01 05:21:00,13.8,9.6,30.25,SSW,202,0.0,3.8,83,0.00,,,0.00,WUHU21623XXSP,2013-01-01 13:21:00,
2013-01-01 05:26:00,13.6,9.4,30.25,SSW,202,0.9,0.9,83,0.00,,,0.00,WUHU21623XXSP,2013-01-01 13:26:00,
2013-01-01 05:34:00,13.6,9.4,30.26,ESE,112,0.0,0.9,83,0.00,,,0.00,WUHU21623XXSP,2013-01-01 13:34:00,
2013-01-01 05:41:00,13.6,9.4,30.26,South,180,1.6,1.6,83,0.00,,,0.00,WUHU21623XXSP,2013-01-01 13:41:00,
2013-01-01 05:51:00,13.6,9.4,30.27,SSE,157,0.0,0.0,83,0.00,,,0.00,WUHU21623XXSP,2013-01-01 13:51:00,
2013-01-01 05:56:00,13.6,9.4,30.27,SSE,157,0.0,0.0,83,0.00,,,0.00,WUHU21623XXSP,2013-01-01 13:56:00,
2013-01-01 06:01:00,13.8,9.6,30.27,ESE,112,0.0,0.0,83,0.00,,,0.00,WUHU21623XXSP,2013-01-01 14:01:00,
2013-01-01 06:11:00,13.8,9.6,30.27,SE,135,0.0,0.0,83,0.00,,,0.00,WUHU21623XXSP,2013-01-01 14:11:00,
2013-01-01 06:17:00,13.8,9.6,30.27,SE,135,0.0,0.0,83,0.00,,,0.00,WUHU21623XXSP,2013-01-01 14:17:00,
2013-01-01 06:30:00,14.2,9.9,30.28,ENE,67,0.0,0.0,83,0.00,,,0.00,WUHU21623XXSP,2013-01-01 14:30:00,
2013-01-01 06:41:00,14.2,9.9,30.28,SE,135,0.0,0.0,83,0.00,,,0.00,WUHU21623XXSP,2013-01-01 14:41:00,
2013-01-01 06:47:00,14.4,10.1,30.28,SE,135,0.0,0.0,83,0.00,,,0.00,WUHU21623XXSP,2013-01-01 14:47:00,
2013-01-01 07:00:00,14.4,10.1,30.29,SE,135,0.0,0.0,83,0.00,,,0.00,WUHU21623XXSP,2013-01-01 15:00:00,
2013-01-01 07:05:00,14.5,10.3,30.29,East,90,0.0,0.0,83,0.00,,,0.00,WUHU21623XXSP,2013-01-01 15:05:00,
2013-01-01 07:36:00,14.7,10.5,30.30,ENE,67,0.0,0.0,83,0.00,,,0.00,WUHU21623XXSP,2013-01-01 15:36:00,
2013-01-01 07:49:00,15.1,10.8,30.31,East,90,0.0,0.0,83,0.00,,,0.00,WUHU21623XXSP,2013-01-01 15:49:00,
2013-01-01 08:00:00,15.4,11.2,30.30,ESE,112,0.0,0.0,83,0.00,,,0.00,WUHU21623XXSP,2013-01-01 16:00:00,
2013-01-01 08:05:00,15.4,11.2,30.31,ESE,112,0.0,0.0,83,0.00,,,0.00,WUHU21623XXSP,2013-01-01 16:05:00,
2013-01-01 08:10:00,15.6,11.3,30.31,ENE,67,0.0,0.0,83,0.00,,,0.00,WUHU21623XXSP,2013-01-01 16:10:00,
2013-01-01 08:15:00,15.6,11.3,30.31,East,90,0.0,0.0,83,0.00,,,0.00,WUHU21623XXSP,2013-01-01 16:15:00,
2013-01-01 08:21:00,15.8,11.5,30.32,ENE,67,0.0,0.0,83,0.00,,,0.00,WUHU21623XXSP,2013-01-01 16:21:00,
2013-01-01 08:26:00,16.0,11.7,30.32,NE,45,0.0,0.0,83,0.00,,,0.00,WUHU21623XXSP,2013-01-01 16:26:00,
2013-01-01 08:32:00,16.2,11.8,30.32,NE,45,0.0,0.0,83,0.00,,,0.00,WUHU21623XXSP,2013-01-01 16:32:00,
2013-01-01 08:37:00,16.3,12.0,30.32,ENE,67,0.0,0.0,83,0.00,,,0.00,WUHU21623XXSP,2013-01-01 16:37:00,
2013-01-01 08:43:00,16.3,12.0,30.33,SE,135,0.0,0.0,83,0.00,,,0.00,WUHU21623XXSP,2013-01-01 16:43:00,
2013-01-01 08:48:00,16.5,12.2,30.33,SE,135,0.0,0.0,83,0.00,,,0.00,WUHU21623XXSP,2013-01-01 16:48:00,
2013-01-01 08:53:00,16.9,12.3,30.33,South,180,0.0,0.0,83,0.00,,,0.00,WUHU21623XXSP,2013-01-01 16:53:00,
2013-01-01 08:58:00,16.9,12.5,30.33,WNW,292,1.6,1.6,83,0.00,,,0.00,WUHU21623XXSP,2013-01-01 16:58:00,
2013-01-01 09:03:00,17.2,12.8,30.34,South,180,0.0,1.6,83,0.00,,,0.00,WUHU21623XXSP,2013-01-01 17:03:00,
2013-01-01 09:08:00,17.4,13.0,30.34,SE,135,0.0,0.0,83,0.00,,,0.00,WUHU21623XXSP,2013-01-01 17:08:00,
2013-01-01 09:15:00,17.8,13.1,30.35,NW,315,0.0,0.0,82,0.00,,,0.00,WUHU21623XXSP,2013-01-01 17:15:00,
2013-01-01 09:20:00,17.8,13.1,30.35,SSE,157,0.0,0.0,82,0.00,,,0.00,WUHU21623XXSP,2013-01-01 17:20:00,
2013-01-01 09:25:00,18.0,13.6,30.35,West,270,0.0,0.0,83,0.00,,,0.00,WUHU21623XXSP,2013-01-01 17:25:00,
2013-01-01 09:30:00,18.3,13.9,30.35,West,270,0.0,0.0,83,0.00,,,0.00,WUHU21623XXSP,2013-01-01 17:30:00,
2013-01-01 09:36:00,19.0,14.6,30.35,NW,315,0.0,0.0,83,0.00,,,0.00,WUHU21623XXSP,2013-01-01 17:36:00,
2013-01-01 09:41:00,19.2,15.1,30.35,SW,225,0.0,0.0,84,0.00,,,0.00,WUHU21623XXSP,2013-01-01 17:41:00,
2013-01-01 09:49:00,20.3,16.2,30.35,SSE,157,0.0,0.0,84,0.00,,,0.00,WUHU21623XXSP,2013-01-01 17:49:00,
2013-01-01 09:55:00,21.0,16.9,30.35,South,180,1.6,1.6,84,0.00,,,0.00,WUHU21623XXSP,2013-01-01 17:55:00,
2013-01-01 10:02:00,21.2,16.8,30.35,SW,225,0.0,1.6,83,0.00,,,0.00,WUHU21623XXSP,2013-01-01 18:02:00,
2013-01-01 10:07:00,21.4,16.7,30.35,NW,315,0.0,0.0,82,0.00,,,0.00,WUHU21623XXSP,2013-01-01 18:07:00,
2013-01-01 10:13:00,21.4,16.7,30.35,East,90,0.0,0.0,82,0.00,,,0.00,WUHU21623XXSP,2013-01-01 18:13:00,
2013-01-01 10:18:00,21.7,17.1,30.35,SSE,157,0.0,0.0,82,0.00,,,0.00,WUHU21623XXSP,2013-01-01 18:18:00,
2013-01-01 10:27:00,23.0,18.3,30.35,East,90,3.6,3.6,82,0.00,,,0.00,WUHU21623XXSP,2013-01-01 18:27:00,
2013-01-01 10:32:00,23.5,18.5,30.35,ENE,67,0.0,3.6,83,0.00,,,0.00,WUHU21623XXSP,2013-01-01 18:32:00,
2013-01-01 10:38:00,24.1,19.4,30.35,SSE,157,0.0,0.0,82,0.00,,,0.00,WUHU21623XXSP,2013-01-01 18:38:00,
2013-01-01 10:47:00,24.6,19.7,30.34,SSE,157,0.0,0.0,81,0.00,,,0.00,WUHU21623XXSP,2013-01-01 18:47:00,
2013-01-01 10:52:00,25.0,19.7,30.34,ESE,112,0.0,0.0,80,0.00,,,0.00,WUHU21623XXSP,2013-01-01 18:52:00,
2013-01-01 10:57:00,25.2,19.9,30.35,SE,135,0.0,0.0,80,0.00,,,0.00,WUHU21623XXSP,2013-01-01 18:57:00,
2013-01-01 11:03:00,25.5,20.1,30.34,South,180,0.0,0.0,79,0.00,,,0.00,WUHU21623XXSP,2013-01-01 19:03:00,
2013-01-01 11:08:00,25.5,19.9,30.34,SE,135,0.0,0.0,79,0.00,,,0.00,WUHU21623XXSP,2013-01-01 19:08:00,
2013-01-01 11:13:00,26.1,20.1,30.34,ESE,112,0.7,0.9,78,0.00,,,0.00,WUHU21623XXSP,2013-01-01 19:13:00,
2013-01-01 11:18:00,26.4,20.4,30.34,SE,135,0.0,0.9,78,0.00,,,0.00,WUHU21623XXSP,2013-01-01 19:18:00,
2013-01-01 11:23:00,27.1,21.1,30.33,SSW,202,0.0,0.0,78,0.00,,,0.00,WUHU21623XXSP,2013-01-01 19:23:00,
2013-01-01 11:28:00,27.7,21.7,30.33,SE,135,0.0,0.0,78,0.00,,,0.00,WUHU21623XXSP,2013-01-01 19:28:00,
2013-01-01 11:33:00,28.2,22.2,30.33,NE,45,0.0,0.0,78,0.00,,,0.00,WUHU21623XXSP,2013-01-01 19:33:00,
2013-01-01 11:38:00,29.3,22.9,30.33,ENE,67,0.0,0.0,77,0.00,,,0.00,WUHU21623XXSP,2013-01-01 19:38:00,
2013-01-01 11:43:00,29.8,23.1,30.33,SSE,157,0.0,0.0,77,0.00,,,0.00,WUHU21623XXSP,2013-01-01 19:43:00,
2013-01-01 11:48:00,30.4,23.7,30.32,ESE,112,0.0,0.0,76,0.00,,,0.00,WUHU21623XXSP,2013-01-01 19:48:00,
2013-01-01 11:53:00,30.9,23.9,30.32,West,270,0.0,1.3,74,0.00,,,0.00,WUHU21623XXSP,2013-01-01 19:53:00,
2013-01-01 12:00:00,31.3,23.6,30.32,SW,225,0.0,1.3,73,0.00,,,0.00,WUHU21623XXSP,2013-01-01 20:00:00,
2013-01-01 12:05:00,31.3,23.6,30.32,SW,225,0.0,0.0,73,0.00,,,0.00,WUHU21623XXSP,2013-01-01 20:05:00,
2013-01-01 12:12:00,31.3,23.0,30.32,WNW,292,3.4,3.4,71,0.00,,,0.00,WUHU21623XXSP,2013-01-01 20:12:00,
2013-01-01 12:17:00,31.3,23.0,30.32,WNW,292,3.4,3.4,71,0.00,,,0.00,WUHU21623XXSP,2013-01-01 20:17:00,
2013-01-01 12:27:00,32.2,24.2,30.32,SW,225,0.7,0.7,71,0.00,,,0.00,WUHU21623XXSP,2013-01-01 20:27:00,
2013-01-01 12:33:00,32.4,23.7,30.32,WNW,292,0.0,0.7,70,0.00,,,0.00,WUHU21623XXSP,2013-01-01 20:33:00,
2013-01-01 12:38:00,32.4,23.3,30.31,East,90,0.0,0.0,69,0.00,,,0.00,WUHU21623XXSP,2013-01-01 20:38:00,
2013-01-01 12:43:00,32.4,23.0,30.31,SE,135,0.0,0.0,68,0.00,,,0.00,WUHU21623XXSP,2013-01-01 20:43:00,
2013-01-01 12:48:00,32.4,23.0,30.31,South,180,0.0,0.0,68,0.00,,,0.00,WUHU21623XXSP,2013-01-01 20:48:00,
2013-01-01 12:53:00,32.5,23.1,30.31,South,180,2.0,2.0,68,0.00,,,0.00,WUHU21623XXSP,2013-01-01 20:53:00,
2013-01-01 12:58:00,32.4,22.6,30.31,ESE,112,0.0,2.0,67,0.00,,,0.00,WUHU21623XXSP,2013-01-01 20:58:00,
2013-01-01 13:03:00,32.2,22.1,30.30,SE,135,0.0,0.0,66,0.00,,,0.00,WUHU21623XXSP,2013-01-01 21:03:00,
2013-01-01 13:08:00,32.4,22.1,30.30,NNW,337,0.0,0.0,66,0.00,,,0.00,WUHU21623XXSP,2013-01-01 21:08:00,
2013-01-01 13:13:00,32.5,22.2,30.31,NNW,337,0.0,0.0,67,0.00,,,0.00,WUHU21623XXSP,2013-01-01 21:13:00,
2013-01-01 13:18:00,32.7,22.9,30.31,SW,225,0.0,0.0,67,0.00,,,0.00,WUHU21623XXSP,2013-01-01 21:18:00,
2013-01-01 13:23:00,33.1,23.3,30.31,SSE,157,0.0,0.0,67,0.00,,,0.00,WUHU21623XXSP,2013-01-01 21:23:00,
2013-01-01 13:32:00,34.2,24.3,30.30,SSE,157,1.1,1.1,67,0.00,,,0.00,WUHU21623XXSP,2013-01-01 21:32:00,
2013-01-01 13:37:00,34.7,24.8,30.31,West,270,0.0,1.1,67,0.00,,,0.00,WUHU21623XXSP,2013-01-01 21:37:00,
2013-01-01 13:42:00,35.2,25.3,30.31,SSE,157,0.0,0.0,67,0.00,,,0.00,WUHU21623XXSP,2013-01-01 21:42:00,
2013-01-01 13:47:00,35.8,25.5,30.31,SSE,157,0.0,0.0,66,0.00,,,0.00,WUHU21623XXSP,2013-01-01 21:47:00,
2013-01-01 13:52:00,35.8,24.8,30.31,South,180,3.8,3.8,64,0.00,,,0.00,WUHU21623XXSP,2013-01-01 21:52:00,
2013-01-01 14:00:00,35.2,23.5,30.31,SSE,157,0.0,3.8,62,0.00,,,0.00,WUHU21623XXSP,2013-01-01 22:00:00,
2013-01-01 14:05:00,34.5,22.5,30.32,South,180,0.0,0.0,61,0.00,,,0.00,WUHU21623XXSP,2013-01-01 22:05:00,
2013-01-01 14:15:00,32.9,20.6,30.31,SE,135,0.0,0.0,60,0.00,,,0.00,WUHU21623XXSP,2013-01-01 22:15:00,
2013-01-01 14:23:00,32.2,20.3,30.32,WSW,247,0.0,0.0,61,0.00,,,0.00,WUHU21623XXSP,2013-01-01 22:23:00,
2013-01-01 14:28:00,31.8,19.9,30.32,West,270,0.0,0.0,61,0.00,,,0.00,WUHU21623XXSP,2013-01-01 22:28:00,
2013-01-01 14:33:00,31.8,19.9,30.32,West,270,0.0,0.0,61,0.00,,,0.00,WUHU21623XXSP,2013-01-01 22:33:00,
2013-01-01 14:38:00,31.6,20.1,30.32,NNW,337,0.0,0.0,62,0.00,,,0.00,WUHU21623XXSP,2013-01-01 22:38:00,
2013-01-01 14:43:00,31.3,19.8,30.32,SW,225,0.0,0.0,62,0.00,,,0.00,WUHU21623XXSP,2013-01-01 22:43:00,
2013-01-01 14:48:00,30.9,19.8,30.32,WNW,292,0.0,0.0,62,0.00,,,0.00,WUHU21623XXSP,2013-01-01 22:48:00,
2013-01-01 14:53:00,30.6,19.2,30.32,WSW,247,0.0,0.0,62,0.00,,,0.00,WUHU21623XXSP,2013-01-01 22:53:00,
2013-01-01 14:58:00,30.0,18.3,30.33,West,270,6.0,8.9,61,0.00,,,0.00,WUHU21623XXSP,2013-01-01 22:58:00,
2013-01-01 15:04:00,29.5,17.7,30.33,North,0,4.7,8.9,61,0.00,,,0.00,WUHU21623XXSP,2013-01-01 23:04:00,
2013-01-01 15:09:00,29.1,17.3,30.33,NNW,337,2.9,6.0,61,0.00,,,0.00,WUHU21623XXSP,2013-01-01 23:09:00,
2013-01-01 15:14:00,28.6,16.9,30.33,WNW,292,7.2,7.2,61,0.00,,,0.00,WUHU21623XXSP,2013-01-01 23:14:00,
2013-01-01 15:19:00,28.2,16.5,30.33,NNW,337,4.7,7.2,61,0.00,,,0.00,WUHU21623XXSP,2013-01-01 23:19:00,
2013-01-01 15:24:00,27.7,16.3,30.33,NNW,337,1.6,4.7,62,0.00,,,0.00,WUHU21623XXSP,2013-01-01 23:24:00,
2013-01-01 15:29:00,27.3,16.0,30.34,West,270,4.7,4.7,62,0.00,,,0.00,WUHU21623XXSP,2013-01-01 23:29:00,
2013-01-01 15:34:00,27.1,15.8,30.33,NW,315,3.1,4.7,62,0.00,,,0.00,WUHU21623XXSP,2013-01-01 23:34:00,
2013-01-01 15:39:00,27.0,15.8,30.33,North,0,2.9,3.1,62,0.00,,,0.00,WUHU21623XXSP,2013-01-01 23:39:00,
2013-01-01 15:44:00,26.8,15.8,30.33,NNE,22,2.7,2.9,63,0.00,,,0.00,WUHU21623XXSP,2013-01-01 23:44:00,
2013-01-01 15:49:00,26.4,15.6,30.33,West,270,0.0,2.7,63,0.00,,,0.00,WUHU21623XXSP,2013-01-01 23:49:00,
2013-01-01 15:55:00,26.2,15.4,30.34,NW,315,0.0,0.0,63,0.00,,,0.00,WUHU21623XXSP,2013-01-01 23:55:00,
2013-01-01 16:00:00,26.2,15.6,30.34,North,0,1.8,1.8,64,0.00,,,0.00,WUHU21623XXSP,2013-01-02 00:00:00,
2013-01-01 16:05:00,26.1,15.5,30.35,WNW,292,3.4,3.4,63,0.00,,,0.00,WUHU21623XXSP,2013-01-02 00:05:00,
2013-01-01 16:10:00,25.7,15.3,30.35,NNW,337,3.6,3.6,64,0.00,,,0.00,WUHU21623XXSP,2013-01-02 00:10:00,
2013-01-01 16:15:00,25.5,15.0,30.35,North,0,1.6,3.6,64,0.00,,,0.00,WUHU21623XXSP,2013-01-02 00:15:00,
2013-01-01 16:20:00,25.3,15.0,30.35,SE,135,0.0,1.6,64,0.00,,,0.00,WUHU21623XXSP,2013-01-02 00:20:00,
2013-01-01 16:25:00,25.0,14.6,30.35,ESE,112,0.0,0.0,64,0.00,,,0.00,WUHU21623XXSP,2013-01-02 00:25:00,
2013-01-01 16:30:00,25.0,14.4,30.35,SSE,157,0.0,0.0,64,0.00,,,0.00,WUHU21623XXSP,2013-01-02 00:30:00,
2013-01-01 16:38:00,24.6,14.1,30.35,SSE,157,0.0,0.0,64,0.00,,,0.00,WUHU21623XXSP,2013-01-02 00:38:00,
2013-01-01 16:43:00,24.4,13.9,30.35,ESE,112,0.0,0.0,64,0.00,,,0.00,WUHU21623XXSP,2013-01-02 00:43:00,
2013-01-01 16:49:00,23.9,13.4,30.35,SE,135,0.0,0.0,64,0.00,,,0.00,WUHU21623XXSP,2013-01-02 00:49:00,
2013-01-01 16:54:00,23.5,13.1,30.35,ESE,112,0.0,0.0,64,0.00,,,0.00,WUHU21623XXSP,2013-01-02 00:54:00,
2013-01-01 16:59:00,23.5,13.4,30.35,ENE,67,0.0,0.0,65,0.00,,,0.00,WUHU21623XXSP,2013-01-02 00:59:00,
2013-01-01 17:04:00,23.0,12.6,30.35,East,90,0.0,0.0,64,0.00,,,0.00,WUHU21623XXSP,2013-01-02 01:04:00,
2013-01-01 17:10:00,22.6,12.2,30.35,SSE,157,0.0,0.0,64,0.00,,,0.00,WUHU21623XXSP,2013-01-02 01:10:00,
2013-01-01 17:15:00,22.3,11.9,30.35,ESE,112,0.0,0.0,64,0.00,,,0.00,WUHU21623XXSP,2013-01-02 01:15:00,
2013-01-01 17:20:00,21.9,11.9,30.36,ENE,67,0.0,0.0,65,0.00,,,0.00,WUHU21623XXSP,2013-01-02 01:20:00,
2013-01-01 17:25:00,21.7,11.7,30.36,ESE,112,0.0,0.0,65,0.00,,,0.00,WUHU21623XXSP,2013-01-02 01:25:00,
2013-01-01 17:30:00,21.6,11.6,30.36,ESE,112,0.0,0.0,65,0.00,,,0.00,WUHU21623XXSP,2013-01-02 01:30:00,
2013-01-01 17:35:00,21.0,11.0,30.36,SSE,157,0.0,0.0,65,0.00,,,0.00,WUHU21623XXSP,2013-01-02 01:35:00,
2013-01-01 17:40:00,20.7,10.7,30.36,ESE,112,0.0,0.0,65,0.00,,,0.00,WUHU21623XXSP,2013-01-02 01:40:00,
2013-01-01 17:45:00,20.5,10.5,30.37,ESE,112,0.0,0.0,65,0.00,,,0.00,WUHU21623XXSP,2013-01-02 01:45:00,
2013-01-01 17:51:00,19.9,9.9,30.37,SSE,157,0.0,0.0,65,0.00,,,0.00,WUHU21623XXSP,2013-01-02 01:51:00,
2013-01-01 17:56:00,19.8,9.8,30.37,ESE,112,0.0,0.0,65,0.00,,,0.00,WUHU21623XXSP,2013-01-02 01:56:00,
2013-01-01 18:02:00,19.4,9.4,30.37,East,90,0.0,0.0,65,0.00,,,0.00,WUHU21623XXSP,2013-01-02 02:02:00,
2013-01-01 18:07:00,19.2,9.2,30.37,East,90,0.0,0.0,65,0.00,,,0.00,WUHU21623XXSP,2013-01-02 02:07:00,
2013-01-01 18:12:00,18.7,9.1,30.38,East,90,0.0,0.0,66,0.00,,,0.00,WUHU21623XXSP,2013-01-02 02:12:00,
2013-01-01 18:17:00,18.7,9.1,30.38,WNW,292,0.0,0.0,66,0.00,,,0.00,WUHU21623XXSP,2013-01-02 02:17:00,
2013-01-01 18:22:00,18.3,8.8,30.38,NNW,337,0.0,0.0,66,0.00,,,0.00,WUHU21623XXSP,2013-01-02 02:22:00,
2013-01-01 18:27:00,18.0,8.6,30.38,NNW,337,0.0,0.0,66,0.00,,,0.00,WUHU21623XXSP,2013-01-02 02:27:00,
2013-01-01 18:32:00,17.8,8.3,30.38,NNW,337,0.0,0.0,66,0.00,,,0.00,WUHU21623XXSP,2013-01-02 02:32:00,
2013-01-01 18:37:00,17.8,8.3,30.38,NNW,337,0.0,0.0,66,0.00,,,0.00,WUHU21623XXSP,2013-01-02 02:37:00,
2013-01-01 18:42:00,17.2,7.8,30.38,NNW,337,0.0,0.0,66,0.00,,,0.00,WUHU21623XXSP,2013-01-02 02:42:00,
2013-01-01 18:47:00,16.9,7.8,30.38,NNW,337,0.0,0.0,67,0.00,,,0.00,WUHU21623XXSP,2013-01-02 02:47:00,
2013-01-01 18:53:00,16.7,7.8,30.38,NNW,337,0.0,0.0,67,0.00,,,0.00,WUHU21623XXSP,2013-01-02 02:53:00,
2013-01-01 18:58:00,16.3,7.4,30.37,SSW,202,0.0,0.0,67,0.00,,,0.00,WUHU21623XXSP,2013-01-02 02:58:00,
2013-01-01 19:03:00,16.3,7.2,30.37,SSW,202,0.0,0.0,67,0.00,,,0.00,WUHU21623XXSP,2013-01-02 03:03:00,
2013-01-01 19:08:00,16.0,6.9,30.38,NNE,22,0.0,0.0,67,0.00,,,0.00,WUHU21623XXSP,2013-01-02 03:08:00,
2013-01-01 19:13:00,15.6,6.7,30.38,SSW,202,0.0,0.0,67,0.00,,,0.00,WUHU21623XXSP,2013-01-02 03:13:00,
2013-01-01 19:21:00,15.4,6.3,30.38,SSE,157,0.0,0.0,67,0.00,,,0.00,WUHU21623XXSP,2013-01-02 03:21:00,
2013-01-01 19:29:00,14.9,5.9,30.38,SE,135,0.0,0.0,67,0.00,,,0.00,WUHU21623XXSP,2013-01-02 03:29:00,
2013-01-01 19:36:00,14.5,5.9,30.38,SSE,157,0.0,0.0,68,0.00,,,0.00,WUHU21623XXSP,2013-01-02 03:36:00,
2013-01-01 19:41:00,14.2,5.6,30.38,West,270,0.0,0.0,68,0.00,,,0.00,WUHU21623XXSP,2013-01-02 03:41:00,
2013-01-01 19:46:00,14.2,5.6,30.38,ESE,112,0.0,0.0,68,0.00,,,0.00,WUHU21623XXSP,2013-01-02 03:46:00,
2013-01-01 19:51:00,13.8,5.2,30.38,WSW,247,0.0,0.0,68,0.00,,,0.00,WUHU21623XXSP,2013-01-02 03:51:00,
2013-01-01 19:56:00,13.6,5.0,30.38,WSW,247,0.0,0.0,68,0.00,,,0.00,WUHU21623XXSP,2013-01-02 03:56:00,
2013-01-01 20:06:00,12.7,4.1,30.38,SSE,157,0.0,0.0,68,0.00,,,0.00,WUHU21623XXSP,2013-01-02 04:06:00,
2013-01-01 20:12:00,12.4,4.1,30.38,SSW,202,0.0,0.0,69,0.00,,,0.00,WUHU21623XXSP,2013-01-02 04:12:00,
2013-01-01 20:17:00,12.0,3.8,30.38,South,180,0.0,0.0,69,0.00,,,0.00,WUHU21623XXSP,2013-01-02 04:17:00,
2013-01-01 20:22:00,11.8,3.6,30.38,SSE,157,0.0,0.0,69,0.00,,,0.00,WUHU21623XXSP,2013-01-02 04:22:00,
2013-01-01 20:27:00,11.7,3.4,30.38,NNW,337,0.0,0.0,69,0.00,,,0.00,WUHU21623XXSP,2013-01-02 04:27:00,
2013-01-01 20:32:00,11.5,3.2,30.38,WNW,292,0.0,0.0,69,0.00,,,0.00,WUHU21623XXSP,2013-01-02 04:32:00,
2013-01-01 20:40:00,11.1,2.9,30.38,WNW,292,0.0,0.0,69,0.00,,,0.00,WUHU21623XXSP,2013-01-02 04:40:00,
2013-01-01 20:45:00,10.9,2.7,30.38,WNW,292,0.0,0.0,69,0.00,,,0.00,WUHU21623XXSP,2013-01-02 04:45:00,
2013-01-01 20:50:00,10.8,2.5,30.38,WNW,292,0.0,0.0,69,0.00,,,0.00,WUHU21623XXSP,2013-01-02 04:50:00,
2013-01-01 20:55:00,10.6,2.3,30.38,South,180,0.0,0.0,69,0.00,,,0.00,WUHU21623XXSP,2013-01-02 04:55:00,
2013-01-01 21:04:00,10.2,2.3,30.38,ENE,67,0.0,0.0,70,0.00,,,0.00,WUHU21623XXSP,2013-01-02 05:04:00,
2013-01-01 21:09:00,10.0,1.8,30.38,NNW,337,0.0,0.0,69,0.00,,,0.00,WUHU21623XXSP,2013-01-02 05:09:00,
2013-01-01 21:14:00,10.0,2.2,30.38,NNW,337,0.0,0.0,70,0.00,,,0.00,WUHU21623XXSP,2013-01-02 05:14:00,
2013-01-01 21:19:00,9.7,1.8,30.38,SE,135,0.0,0.0,70,0.00,,,0.00,WUHU21623XXSP,2013-01-02 05:19:00,
2013-01-01 21:24:00,9.5,1.7,30.38,ESE,112,0.0,0.0,70,0.00,,,0.00,WUHU21623XXSP,2013-01-02 05:24:00,
2013-01-01 21:29:00,9.3,1.5,30.38,East,90,0.0,0.0,70,0.00,,,0.00,WUHU21623XXSP,2013-01-02 05:29:00,
2013-01-01 21:34:00,9.3,1.5,30.38,NE,45,0.0,0.0,70,0.00,,,0.00,WUHU21623XXSP,2013-01-02 05:34:00,
2013-01-01 21:39:00,9.1,1.3,30.38,NE,45,0.0,0.0,70,0.00,,,0.00,WUHU21623XXSP,2013-01-02 05:39:00,
2013-01-01 21:44:00,9.0,1.5,30.37,NE,45,0.0,0.0,71,0.00,,,0.00,WUHU21623XXSP,2013-01-02 05:44:00,
2013-01-01 21:49:00,8.8,1.0,30.37,ESE,112,0.0,0.0,70,0.00,,,0.00,WUHU21623XXSP,2013-01-02 05:49:00,
2013-01-01 21:54:00,8.8,1.0,30.37,NE,45,0.0,0.0,70,0.00,,,0.00,WUHU21623XXSP,2013-01-02 05:54:00,
2013-01-01 21:59:00,8.4,1.1,30.37,NE,45,0.0,0.0,71,0.00,,,0.00,WUHU21623XXSP,2013-01-02 05:59:00,
2013-01-01 22:04:00,8.4,1.0,30.37,WSW,247,0.0,0.0,71,0.00,,,0.00,WUHU21623XXSP,2013-01-02 06:04:00,
2013-01-01 22:16:00,8.2,0.8,30.37,SE,135,0.0,0.0,71,0.00,,,0.00,WUHU21623XXSP,2013-01-02 06:16:00,
2013-01-01 22:21:00,8.1,0.6,30.37,WSW,247,0.0,0.0,71,0.00,,,0.00,WUHU21623XXSP,2013-01-02 06:21:00,
2013-01-01 22:26:00,7.9,0.4,30.37,West,270,0.0,0.0,71,0.00,,,0.00,WUHU21623XXSP,2013-01-02 06:26:00,
2013-01-01 22:36:00,7.7,0.5,30.36,NNW,337,0.0,0.0,72,0.00,,,0.00,WUHU21623XXSP,2013-01-02 06:36:00,
2013-01-01 22:44:00,7.5,0.4,30.37,NNW,337,0.0,0.0,72,0.00,,,0.00,WUHU21623XXSP,2013-01-02 06:44:00,
2013-01-01 22:49:00,7.5,0.4,30.36,NE,45,0.0,0.0,72,0.00,,,0.00,WUHU21623XXSP,2013-01-02 06:49:00,
2013-01-01 23:01:00,7.5,0.4,30.36,SE,135,0.0,0.0,72,0.00,,,0.00,WUHU21623XXSP,2013-01-02 07:01:00,
2013-01-01 23:08:00,7.3,0.2,30.36,East,90,0.0,0.0,72,0.00,,,0.00,WUHU21623XXSP,2013-01-02 07:08:00,
2013-01-01 23:14:00,7.2,0.0,30.35,NE,45,0.0,0.0,72,0.00,,,0.00,WUHU21623XXSP,2013-01-02 07:14:00,
2013-01-01 23:19:00,7.0,-0.2,30.35,SSE,157,0.0,0.0,72,0.00,,,0.00,WUHU21623XXSP,2013-01-02 07:19:00,
2013-01-01 23:53:00,6.6,-0.3,30.35,NE,45,0.0,0.0,73,0.00,,,0.00,WUHU21623XXSP,2013-01-02 07:53:00,
2013-01-01 23:58:00,6.6,-0.3,30.35,NE,45,0.0,0.0,73,0.00,,,0.00,WUHU21623XXSP,2013-01-02 07:58:00,